"Period start","avg(HW err(1)/warn(2) (#))","avg(Visibility (m))","avg(Weather code (#))","avg(Precip intensity (mm/h))","min(HW err(1)/warn(2) (#))","max(HW err(1)/warn(2) (#))","std(HW err(1)/warn(2) (#))","med(HW err(1)/warn(2) (#))","min(Visibility (m))","max(Visibility (m))","std(Visibility (m))","med(Visibility (m))","min(Weather code (#))","max(Weather code (#))","std(Weather code (#))","med(Weather code (#))","min(Precip intensity (mm/h))","max(Precip intensity (mm/h))","std(Precip intensity (mm/h))","med(Precip intensity (mm/h))"
2016-04-15 00:00:00,2,36869,0,0.00,2,2,0,2,29918,50000,6497,34332,0,0,0,0,0.00,0.00,0.00,0.00
2016-04-15 00:10:00,2,34163,0,0.00,2,2,0,2,20256,50000,8745,33907,0,0,0,0,0.00,0.00,0.00,0.00
2016-04-15 00:20:00,2,26042,0,0.00,2,2,0,2,15968,33560,5461,26638,0,0,0,0,0.00,0.00,0.00,0.00
2016-04-15 00:30:00,2,26874,0,0.00,2,2,0,2,19765,37035,5414,25338,0,0,0,0,0.00,0.00,0.00,0.00
2016-04-15 00:40:00,2,28517,0,0.00,2,2,0,2,20411,42580,7678,24140,0,0,0,0,0.00,0.00,0.00,0.00
2016-04-15 00:50:00,2,23949,0,0.00,2,2,0,2,6497,40197,8864,22636,0,0,0,0,0.00,0.00,0.00,0.00
2016-04-15 01:00:00,2,31429,0,0.00,2,2,0,2,22298,41125,6105,29384,0,0,0,0,0.00,0.00,0.00,0.00
2016-04-15 01:10:00,2,33224,0,0.00,2,2,0,2,21971,44603,7502,32538,0,0,0,0,0.00,0.00,0.00,0.00
2016-04-15 01:20:00,2,31225,28,0.03,2,2,0,2,9385,42724,9685,30020,0,71,35,0,0.00,0.25,0.08,0.00
2016-04-15 01:30:00,2,30990,0,0.00,2,2,0,2,11093,49264,10576,29313,0,0,0,0,0.00,0.00,0.00,0.00
2016-04-15 01:40:00,2,31060,0,0.00,2,2,0,2,12805,50000,11741,31086,0,0,0,0,0.00,0.00,0.00,0.00
2016-04-15 01:50:00,2,29420,0,0.00,2,2,0,2,14945,39206,6795,28204,0,0,0,0,0.00,0.00,0.00,0.00
2016-04-15 02:00:00,2,37571,0,0.00,2,2,0,2,25815,50000,8588,34924,0,0,0,0,0.00,0.00,0.00,0.00
2016-04-15 02:10:00,2,27119,36,0.03,2,2,0,2,10185,34255,7000,28949,0,71,36,36,0.00,0.30,0.09,0.00
2016-04-15 02:20:00,2,28996,0,0.00,2,2,0,2,16228,50000,11059,25198,0,0,0,0,0.00,0.00,0.00,0.00
2016-04-15 02:30:00,2,28499,0,0.00,2,2,0,2,19080,50000,8429,26038,0,0,0,0,0.00,0.00,0.00,0.00
2016-04-15 02:40:00,2,36567,0,0.00,2,2,0,2,24573,50000,9454,35548,0,0,0,0,0.00,0.00,0.00,0.00
2016-04-15 02:50:00,2,33797,0,0.00,2,2,0,2,14855,50000,11544,34586,0,0,0,0,0.00,0.00,0.00,0.00
2016-04-15 03:00:00,2,37510,0,0.00,2,2,0,2,17629,50000,11187,40246,0,0,0,0,0.00,0.00,0.00,0.00
2016-04-15 03:10:00,2,29300,0,0.00,2,2,0,2,15826,42794,8867,30973,0,0,0,0,0.00,0.00,0.00,0.00
2016-04-15 03:20:00,2,36601,0,0.00,2,2,0,2,25502,50000,8328,35240,0,0,0,0,0.00,0.00,0.00,0.00
2016-04-15 03:30:00,2,40314,0,0.00,2,2,0,2,26008,50000,9541,44922,0,0,0,0,0.00,0.00,0.00,0.00
2016-04-15 03:40:00,2,38233,0,0.00,2,2,0,2,28513,50000,7112,40442,0,0,0,0,0.00,0.00,0.00,0.00
2016-04-15 03:50:00,2,43282,0,0.00,2,2,0,2,30522,50000,7019,45911,0,0,0,0,0.00,0.00,0.00,0.00
2016-04-15 04:00:00,2,37640,0,0.00,2,2,0,2,21433,50000,10197,36252,0,0,0,0,0.00,0.00,0.00,0.00
2016-04-15 04:10:00,2,32338,0,0.00,2,2,0,2,25918,47833,6444,30368,0,0,0,0,0.00,0.00,0.00,0.00
2016-04-15 04:20:00,2,34093,0,0.00,2,2,0,2,18041,40884,6800,36564,0,0,0,0,0.00,0.00,0.00,0.00
2016-04-15 04:30:00,2,32664,0,0.00,2,2,0,2,26305,44346,6512,29150,0,0,0,0,0.00,0.00,0.00,0.00
2016-04-15 04:40:00,2,32715,8,0.00,2,2,0,2,14780,41196,7523,34544,0,40,16,0,0.00,0.00,0.00,0.00
2016-04-15 04:50:00,2,21516,22,0.02,2,2,0,2,7793,35242,7402,21287,0,71,29,0,0.00,0.15,0.05,0.00
2016-04-15 05:00:00,2,11776,71,0.07,2,2,0,2,8567,15571,2596,11416,71,71,0,71,0.00,0.40,0.12,0.03
2016-04-15 05:10:00,2,25138,65,0.01,2,2,0,2,14906,39444,7877,22890,0,77,22,71,0.00,0.05,0.02,0.00
2016-04-15 05:20:00,2,27457,0,0.00,2,2,0,2,18996,50000,8785,23443,0,0,0,0,0.00,0.00,0.00,0.00
2016-04-15 05:30:00,2,31879,0,0.00,2,2,0,2,20425,48999,8844,30124,0,0,0,0,0.00,0.00,0.00,0.00
2016-04-15 05:40:00,2,34242,0,0.00,2,2,0,2,21240,44549,7491,33049,0,0,0,0,0.00,0.00,0.00,0.00
2016-04-15 05:50:00,2,31020,0,0.00,2,2,0,2,23176,44331,6452,28546,0,0,0,0,0.00,0.00,0.00,0.00
2016-04-15 06:00:00,2,36147,0,0.00,2,2,0,2,26657,50000,7755,34489,0,0,0,0,0.00,0.00,0.00,0.00
2016-04-15 06:10:00,2,33518,0,0.00,2,2,0,2,26856,50000,6619,32108,0,0,0,0,0.00,0.00,0.00,0.00
2016-04-15 06:20:00,2,31765,0,0.00,2,2,0,2,23604,39799,4278,30698,0,0,0,0,0.00,0.00,0.00,0.00
2016-04-15 06:30:00,2,37087,0,0.00,2,2,0,2,26642,47936,6330,37851,0,0,0,0,0.00,0.00,0.00,0.00
2016-04-15 06:40:00,2,39479,0,0.00,2,2,0,2,30299,48317,5363,40070,0,0,0,0,0.00,0.00,0.00,0.00
2016-04-15 06:50:00,2,35597,0,0.00,2,2,0,2,17414,49516,9992,34949,0,0,0,0,0.00,0.00,0.00,0.00
2016-04-15 07:00:00,2,40503,0,0.00,2,2,0,2,30623,50000,6686,41092,0,0,0,0,0.00,0.00,0.00,0.00
2016-04-15 07:10:00,2,39640,0,0.00,2,2,0,2,25549,50000,7815,40364,0,0,0,0,0.00,0.00,0.00,0.00
2016-04-15 07:20:00,2,38937,0,0.00,2,2,0,2,32544,50000,5272,38198,0,0,0,0,0.00,0.00,0.00,0.00
2016-04-15 07:30:00,2,40149,0,0.00,2,2,0,2,31055,45253,4547,42221,0,0,0,0,0.00,0.00,0.00,0.00
2016-04-15 07:40:00,2,39293,0,0.00,2,2,0,2,30271,44977,5228,41128,0,0,0,0,0.00,0.00,0.00,0.00
2016-04-15 07:50:00,2,41130,0,0.00,2,2,0,2,29268,50000,7370,39324,0,0,0,0,0.00,0.00,0.00,0.00
2016-04-15 08:00:00,2,40504,0,0.00,2,2,0,2,30406,50000,7294,40034,0,0,0,0,0.00,0.00,0.00,0.00
2016-04-15 08:10:00,2,37640,0,0.00,2,2,0,2,26639,45924,6674,36448,0,0,0,0,0.00,0.00,0.00,0.00
2016-04-15 08:20:00,2,38838,0,0.00,2,2,0,2,32553,46068,4000,39723,0,0,0,0,0.00,0.00,0.00,0.00
2016-04-15 08:30:00,2,44090,0,0.00,2,2,0,2,37256,50000,4844,44400,0,0,0,0,0.00,0.00,0.00,0.00
2016-04-15 08:40:00,2,39696,0,0.00,2,2,0,2,32387,50000,5534,38792,0,0,0,0,0.00,0.00,0.00,0.00
2016-04-15 08:50:00,2,35710,0,0.00,2,2,0,2,29777,40697,4126,36340,0,0,0,0,0.00,0.00,0.00,0.00
2016-04-15 09:00:00,2,39200,0,0.00,2,2,0,2,29731,48414,6485,37866,0,0,0,0,0.00,0.00,0.00,0.00
2016-04-15 09:10:00,2,40487,0,0.00,2,2,0,2,34344,47688,4529,39976,0,0,0,0,0.00,0.00,0.00,0.00
2016-04-15 09:20:00,2,38831,0,0.00,2,2,0,2,29620,48401,5449,38418,0,0,0,0,0.00,0.00,0.00,0.00
2016-04-15 09:30:00,2,35609,0,0.00,2,2,0,2,26250,49180,6007,35027,0,0,0,0,0.00,0.00,0.00,0.00
2016-04-15 09:40:00,2,42284,0,0.00,2,2,0,2,29127,49615,6175,43798,0,0,0,0,0.00,0.00,0.00,0.00
2016-04-15 09:50:00,2,42028,0,0.00,2,2,0,2,29846,50000,6121,43805,0,0,0,0,0.00,0.00,0.00,0.00
2016-04-15 10:00:00,2,43692,0,0.00,2,2,0,2,34970,50000,4262,43435,0,0,0,0,0.00,0.00,0.00,0.00
2016-04-15 10:10:00,2,43735,0,0.00,2,2,0,2,36329,50000,3943,43064,0,0,0,0,0.00,0.00,0.00,0.00
2016-04-15 10:20:00,2,44649,0,0.00,2,2,0,2,32652,50000,5895,45946,0,0,0,0,0.00,0.00,0.00,0.00
2016-04-15 10:30:00,2,44224,0,0.00,2,2,0,2,36136,50000,3816,44096,0,0,0,0,0.00,0.00,0.00,0.00
2016-04-15 10:40:00,2,45746,0,0.00,2,2,0,2,39895,50000,3059,46090,0,0,0,0,0.00,0.00,0.00,0.00
2016-04-15 10:50:00,2,48669,0,0.00,2,2,0,2,46522,50000,1162,48890,0,0,0,0,0.00,0.00,0.00,0.00
2016-04-15 11:00:00,2,39314,0,0.00,2,2,0,2,30840,49333,5199,40834,0,0,0,0,0.00,0.00,0.00,0.00
2016-04-15 11:10:00,2,45644,0,0.00,2,2,0,2,41715,49894,2997,44736,0,0,0,0,0.00,0.00,0.00,0.00
2016-04-15 11:20:00,2,46595,0,0.00,2,2,0,2,37464,50000,3610,46974,0,0,0,0,0.00,0.00,0.00,0.00
2016-04-15 11:30:00,2,47280,0,0.00,2,2,0,2,44216,50000,2126,47085,0,0,0,0,0.00,0.00,0.00,0.00
2016-04-15 11:40:00,2,48075,0,0.00,2,2,0,2,41656,50000,2569,48960,0,0,0,0,0.00,0.00,0.00,0.00
2016-04-15 11:50:00,2,48937,0,0.00,2,2,0,2,46361,50000,1279,49592,0,0,0,0,0.00,0.00,0.00,0.00
2016-04-15 12:00:00,2,49058,0,0.00,2,2,0,2,45989,50000,1448,50000,0,0,0,0,0.00,0.00,0.00,0.00
2016-04-15 12:10:00,2,48739,0,0.00,2,2,0,2,45836,50000,1393,49014,0,0,0,0,0.00,0.00,0.00,0.00
2016-04-15 12:20:00,2,48115,0,0.00,2,2,0,2,45372,50000,1559,48225,0,0,0,0,0.00,0.00,0.00,0.00
2016-04-15 12:30:00,2,47458,0,0.00,2,2,0,2,44795,50000,2070,47120,0,0,0,0,0.00,0.00,0.00,0.00
2016-04-15 12:40:00,2,45655,0,0.00,2,2,0,2,37822,50000,3784,46051,0,0,0,0,0.00,0.00,0.00,0.00
2016-04-15 12:50:00,2,41262,0,0.00,2,2,0,2,33490,48373,3951,42241,0,0,0,0,0.00,0.00,0.00,0.00
2016-04-15 13:00:00,2,42590,0,0.00,2,2,0,2,34752,50000,6329,43493,0,0,0,0,0.00,0.00,0.00,0.00
2016-04-15 13:10:00,2,45370,0,0.00,2,2,0,2,39704,48991,3004,46022,0,0,0,0,0.00,0.00,0.00,0.00
2016-04-15 13:20:00,2,39614,0,0.00,2,2,0,2,30748,47530,6108,39524,0,0,0,0,0.00,0.00,0.00,0.00
2016-04-15 13:30:00,2,45431,0,0.00,2,2,0,2,39687,50000,4193,47700,0,0,0,0,0.00,0.00,0.00,0.00
2016-04-15 13:40:00,2,46130,0,0.00,2,2,0,2,42162,50000,2418,46066,0,0,0,0,0.00,0.00,0.00,0.00
2016-04-15 13:50:00,2,49312,0,0.00,2,2,0,2,47310,50000,874,49610,0,0,0,0,0.00,0.00,0.00,0.00
2016-04-15 14:00:00,2,48839,0,0.00,2,2,0,2,44874,50000,1718,49922,0,0,0,0,0.00,0.00,0.00,0.00
2016-04-15 14:10:00,2,49279,0,0.00,2,2,0,2,46686,50000,1151,49918,0,0,0,0,0.00,0.00,0.00,0.00
2016-04-15 14:20:00,2,49056,0,0.00,2,2,0,2,46040,50000,1182,49230,0,0,0,0,0.00,0.00,0.00,0.00
2016-04-15 14:30:00,2,46801,0,0.00,2,2,0,2,39166,50000,3512,48302,0,0,0,0,0.00,0.00,0.00,0.00
2016-04-15 14:40:00,2,49742,0,0.00,2,2,0,2,48263,50000,548,50000,0,0,0,0,0.00,0.00,0.00,0.00
2016-04-15 14:50:00,2,44310,0,0.00,2,2,0,2,36934,50000,4217,45412,0,0,0,0,0.00,0.00,0.00,0.00
2016-04-15 15:00:00,2,43656,0,0.00,2,2,0,2,37991,47067,2450,43117,0,0,0,0,0.00,0.00,0.00,0.00
2016-04-15 15:10:00,2,46132,0,0.00,2,2,0,2,40012,50000,3202,46311,0,0,0,0,0.00,0.00,0.00,0.00
2016-04-15 15:20:00,2,43705,0,0.00,2,2,0,2,39228,46862,2869,44660,0,0,0,0,0.00,0.00,0.00,0.00
2016-04-15 15:30:00,2,47107,0,0.00,2,2,0,2,43609,50000,1964,47186,0,0,0,0,0.00,0.00,0.00,0.00
2016-04-15 15:40:00,2,47748,0,0.00,2,2,0,2,45256,50000,1704,47192,0,0,0,0,0.00,0.00,0.00,0.00
2016-04-15 15:50:00,2,48877,0,0.00,2,2,0,2,43948,50000,2013,49879,0,0,0,0,0.00,0.00,0.00,0.00
2016-04-15 16:00:00,2,49242,0,0.00,2,2,0,2,47032,50000,1179,50000,0,0,0,0,0.00,0.00,0.00,0.00
2016-04-15 16:10:00,2,48171,0,0.00,2,2,0,2,46162,50000,1558,48070,0,0,0,0,0.00,0.00,0.00,0.00
2016-04-15 16:20:00,2,45815,0,0.00,2,2,0,2,38198,50000,3622,46100,0,0,0,0,0.00,0.00,0.00,0.00
2016-04-15 16:30:00,2,47233,0,0.00,2,2,0,2,37640,50000,3590,48366,0,0,0,0,0.00,0.00,0.00,0.00
2016-04-15 16:40:00,2,46678,0,0.00,2,2,0,2,39045,50000,4323,49780,0,0,0,0,0.00,0.00,0.00,0.00
2016-04-15 16:50:00,2,47966,0,0.00,2,2,0,2,44767,50000,1940,48641,0,0,0,0,0.00,0.00,0.00,0.00
2016-04-15 17:00:00,2,41606,0,0.00,2,2,0,2,37089,46983,3858,39980,0,0,0,0,0.00,0.00,0.00,0.00
2016-04-15 17:10:00,2,30944,0,0.00,2,2,0,2,21197,38021,5280,31370,0,0,0,0,0.00,0.00,0.00,0.00
2016-04-15 17:20:00,2,32535,0,0.00,2,2,0,2,15513,42263,8599,35274,0,0,0,0,0.00,0.00,0.00,0.00
2016-04-15 17:30:00,2,36267,0,0.00,2,2,0,2,29547,42922,4156,35297,0,0,0,0,0.00,0.00,0.00,0.00
2016-04-15 17:40:00,2,35290,0,0.00,2,2,0,2,26809,46654,7107,33896,0,0,0,0,0.00,0.00,0.00,0.00
2016-04-15 17:50:00,2,24304,0,0.00,2,2,0,2,21196,27430,1770,24778,0,0,0,0,0.00,0.00,0.00,0.00
2016-04-15 18:00:00,2,30820,0,0.00,2,2,0,2,26464,38344,4306,29052,0,0,0,0,0.00,0.00,0.00,0.00
2016-04-15 18:10:00,2,42636,0,0.00,2,2,0,2,38576,50000,4099,41373,0,0,0,0,0.00,0.00,0.00,0.00
2016-04-15 18:20:00,2,45343,0,0.00,2,2,0,2,33868,50000,4926,47052,0,0,0,0,0.00,0.00,0.00,0.00
2016-04-15 18:30:00,2,31240,0,0.00,2,2,0,2,25469,37710,3875,30642,0,0,0,0,0.00,0.00,0.00,0.00
2016-04-15 18:40:00,2,24886,0,0.00,2,2,0,2,19738,33577,4700,23005,0,0,0,0,0.00,0.00,0.00,0.00
2016-04-15 18:50:00,2,19553,0,0.00,2,2,0,2,16237,24623,2110,19125,0,0,0,0,0.00,0.00,0.00,0.00
2016-04-15 19:00:00,2,27561,0,0.00,2,2,0,2,17418,40012,8150,26886,0,0,0,0,0.00,0.00,0.00,0.00
2016-04-15 19:10:00,2,25618,0,0.00,2,2,0,2,18944,37009,5309,24692,0,0,0,0,0.00,0.00,0.00,0.00
2016-04-15 19:20:00,2,20788,0,0.00,2,2,0,2,16307,25241,2423,20452,0,0,0,0,0.00,0.00,0.00,0.00
2016-04-15 19:30:00,2,18750,0,0.00,2,2,0,2,15303,21727,1868,18716,0,0,0,0,0.00,0.00,0.00,0.00
2016-04-15 19:40:00,2,22302,0,0.00,2,2,0,2,16736,24871,2211,22234,0,0,0,0,0.00,0.00,0.00,0.00
2016-04-15 19:50:00,2,11317,0,0.00,2,2,0,2,4407,17085,4080,13022,0,0,0,0,0.00,0.00,0.00,0.00
2016-04-15 20:00:00,2,11269,6,0.00,2,2,0,2,6608,15198,3086,12336,0,10,5,10,0.00,0.00,0.00,0.00
2016-04-15 20:10:00,2,15810,0,0.00,2,2,0,2,14167,18871,1487,15282,0,0,0,0,0.00,0.00,0.00,0.00
2016-04-15 20:20:00,2,22048,0,0.00,2,2,0,2,12446,34869,7185,21553,0,0,0,0,0.00,0.00,0.00,0.00
2016-04-15 20:30:00,2,29780,0,0.00,2,2,0,2,26336,35593,2926,28860,0,0,0,0,0.00,0.00,0.00,0.00
2016-04-15 20:40:00,2,15492,0,0.00,2,2,0,2,9277,27330,5234,15304,0,0,0,0,0.00,0.00,0.00,0.00
2016-04-15 20:50:00,2,13555,0,0.00,2,2,0,2,7555,24957,6350,11350,0,0,0,0,0.00,0.00,0.00,0.00
2016-04-15 21:00:00,2,26251,0,0.00,2,2,0,2,21169,34482,3984,24581,0,0,0,0,0.00,0.00,0.00,0.00
2016-04-15 21:10:00,2,26123,0,0.00,2,2,0,2,18835,37738,5603,24348,0,0,0,0,0.00,0.00,0.00,0.00
2016-04-15 21:20:00,2,28595,0,0.00,2,2,0,2,25602,35809,2963,27214,0,0,0,0,0.00,0.00,0.00,0.00
2016-04-15 21:30:00,2,19317,0,0.00,2,2,0,2,15052,22757,2470,19808,0,0,0,0,0.00,0.00,0.00,0.00
2016-04-15 21:40:00,2,33211,0,0.00,2,2,0,2,20281,45424,6441,32499,0,0,0,0,0.00,0.00,0.00,0.00
2016-04-15 21:50:00,2,25123,0,0.00,2,2,0,2,18738,32476,4703,23876,0,0,0,0,0.00,0.00,0.00,0.00
2016-04-15 22:00:00,2,17205,0,0.00,2,2,0,2,6230,32528,6969,15910,0,0,0,0,0.00,0.00,0.00,0.00
2016-04-15 22:10:00,2,14710,0,0.00,2,2,0,2,10798,19932,2940,13431,0,0,0,0,0.00,0.00,0.00,0.00
2016-04-15 22:20:00,2,17164,0,0.00,2,2,0,2,11691,28366,4211,16462,0,0,0,0,0.00,0.00,0.00,0.00
2016-04-15 22:30:00,2,12110,0,0.00,2,2,0,2,9485,14241,1618,11659,0,0,0,0,0.00,0.00,0.00,0.00
2016-04-15 22:40:00,2,19005,0,0.00,2,2,0,2,11001,29239,4992,19897,0,0,0,0,0.00,0.00,0.00,0.00
2016-04-15 22:50:00,2,26720,0,0.00,2,2,0,2,19443,36225,4542,26267,0,0,0,0,0.00,0.00,0.00,0.00
2016-04-15 23:00:00,2,22675,0,0.00,2,2,0,2,17569,27072,3137,23286,0,0,0,0,0.00,0.00,0.00,0.00
2016-04-15 23:10:00,2,29534,0,0.00,2,2,0,2,16906,34058,4851,30128,0,0,0,0,0.00,0.00,0.00,0.00
2016-04-15 23:20:00,2,32800,0,0.00,2,2,0,2,22533,45063,8776,28846,0,0,0,0,0.00,0.00,0.00,0.00
2016-04-15 23:30:00,2,27732,0,0.00,2,2,0,2,17630,37174,5622,27312,0,0,0,0,0.00,0.00,0.00,0.00
2016-04-15 23:40:00,2,26066,0,0.00,2,2,0,2,16714,41454,7248,25024,0,0,0,0,0.00,0.00,0.00,0.00
2016-04-15 23:50:00,2,28164,0,0.00,2,2,0,2,21065,39367,4948,26650,0,0,0,0,0.00,0.00,0.00,0.00
